STARLINK-3622, 51768

Orbit data source: Space-Track

STARLINK-3622, 51768 is a payload satellite owned by SpaceX/Seattle (US) in LEO that was launched on Fri, 25 Feb 2022 UTC via an FALCON 9 launch vehicle from the Air Force Western Test Range (AFWTR). Payload-class satellites include a variety of spacecraft equipped with specific instruments for various scientific and technological missions. These include communications satellites like Starlink; space stations such as the ISS; scientific satellites like the Hubble; Earth observation satellites from companies like Planet Labs, Umbra, and HawkEye 360; GPS; miniature CubeSats for education and research; and military/defense satellites.

Loading next visibility...
Identifier
51768, 2022-017A
Orbit
LEO
Country
Flag of USUS
Related business
Manufacturer
SpaceX/Seattle
Mission
Operational Commercial Communications
Bus & Motor
STARLINK, Unknown motor
Mass
297 kg wet, ~275 kg dry
Launch date (UTC)
2022-02-25 (4 years ago)
Launch vehicle
FALCON 9
Launch site
Air Force Western Test Range (AFWTR)
Object type
Payload
Rocket body
Debris
Shape & HBR
Box + 1 Pan, 10.1 m
Radar Cross Section
13.562 m², Large (>1 m²)

Expand to show TLE details & history
Last TLE update: 2 days ago

TLE from 2 days ago
0 STARLINK-3622
1 51768U 22017A   26171.35919874  .00000670  00000-0  60167-4 0  9999
2 51768  53.1589 238.1037 0001192  85.2749 274.8379 15.08831487239540
Epoch: 2026-06-20T08:37Z
TLE epoch observation values (Epoch: 2026-06-20T08:37:14.771Z)
Latitude
0.00003°
Longitude
-159.78278°
Altitude
540.591 km
Speed
7.593 km/s
True Right ascension
15h 52m 24s
True Declination
0° 00' 00"
Sunlit
Object was in full shadow at epoch
Visualization orbit readout
Latitude
Unknown
Longitude
Unknown
Altitude
Unknown
Speed
Unknown
Apparent Right ascension
Unknown
Apparent Declination
Unknown
Sunlit
N/A
Visualization observer readout
Local Sidereal Time
21:33:03
Azimuth
Unknown
Elevation
Unknown
Doppler factor
Unknown
Orbital elements
Apogee altitude
540.848 km
Perigee altitude
539.199 km
Semi-major axis
6,918.161 km
Eccentricity
0.00012
Inclination
53.1589°
RAAN
238.1037°
Arg. of periapsis
85.2749°
True anomaly
274.82429°
Mean anomaly
274.8379°
Eccentric anomaly
274.83109°
Mean motion
3.77187 °/min
Orbital period
95.44 mins
BSTAR
0.000060167
Loading maneuver chart data...
Computing Atmospheric mass density...
Loading historical data...
Loading historical data...
Loading historical data...
Loading historical data...
Loading historical data...
Loading historical data...
Loading historical data...

Documentation

Showing up to 5 results
|